Tracking 30292 objects as of 28-Apr-2025
HD Live streaming from Space Station
objects crossing your sky now

FENGYUN 1C DEB

Track FENGYUN 1C DEB now!
10-day predictions


NORAD ID: 30867
Int'l Code: 1999-025AXD
Perigee: 775.8 km
Apogee: 852.8 km
Inclination: 97.9 °
Period: 101.0 minutes
Semi major axis: 7185 km
RCS: 0.0166 m2 (small)
Launch date: May 10, 1999
Source: People's Republic of China (PRC)
Launch site: Taiyaun Space Center, China (TSC)

Note: This is SATELLITE DEBRIS
Your satellite tracking list
Your tracking list is empty




NASA's NSSDC Master Catalog

Two Line Element Set (TLE):
1 30867U 99025AXD 25118.06209751  .00011301  00000-0  47294-2 0  9990
2 30867  97.8789  47.7036 0053593 321.2230  49.6786 14.25397210933187
Source of the keplerian elements: AFSPC